STARLINK-11468 [DTC] (62221 NORAD) Tracking and Keplerian Element Data

This shows tracking and keplerian element data for the satellite.

Feedback or suggestion? Click here.




ElementValue
Catalog62221
NameSTARLINK-11468 [DTC]
Epoch Orbit1076
Epoch Day34.84048147
Epoch Year2025
RAAN267.7542
Inclination53.1573
Eccentricity0.0001292
Argument of Perigee89.8303
Mean Anonmoly270.2862
Mean Motion15.69711654
Decay Rate1.93E-06
L11 62221U 24231D 25034.84048147 .00000193 00000+0 64506-5 0 9993
L22 62221 53.1573 267.7542 0001292 89.8303 270.2862 15.69711654 10763



Live tracking and technical data element details for STARLINK-11468 [DTC] (NORAD 62221). STARLINK-11468 [DTC] can be tracked NOW for your location showing map with azimuth and elevation plus other details from your city location.







IsCatalogInMostPopularTable: catalog: 62221, numindb: 16
Update: records affected: 1



GetName: 62221 STARLINK-11468 [DTC]

Hit Count: updated at: Sat, 24 May 2025 16:59:56 GMT